Location: K�ln
(50.9455°N, 6.9544°E)
Time: 08:26:34
(UTC+01:00)

ISS - Pass Details

Date: 05 January 2018
Orbit: 402 x 406 km, 51.6° (Epoch: 16 January)

Event Time Altitude Azimuth Distance (km) Brightness Sun altitude
Exits shadow 07:38:26 11° 280° (W) 1,424 -1.7 -8.4°
Maximum altitude 07:41:37 85° 7° (N) 413 -3.8 -7.9°
Drops below altitude 10° 07:44:55 10° 98° (E) 1,468 0.4 -7.5°
Sets 07:47:00 0° 99° (E) 2,328 1.7 -7.2°
